START_TIME,STEP,MOV.,AL01,t_acc.,AL02,t_acc.,E37,t_acc.,H21,t_acc.
1979-08-05 21:00:32.910 ,0,0,0.,24.0,0.,24.0,1.,24.0,0.,24.0
1979-08-05 21:00:56.910 ,0,1,0.,24.0,0.,24.0,1.,24.0,0.,24.0
1979-08-05 21:01:20.910 ,0,0,0.,24.0,0.,24.0,0.,24.0,0.,24.0
1979-08-05 21:01:44.910 ,1,1,0.,24.0,0.,24.0,0.,24.0,0.,24.0
1979-08-05 21:02:08.910 ,1,0,0.,24.0,0.,24.0,0.,24.0,0.,24.0
1979-08-05 21:02:32.910 ,2,1,0.,24.0,0.,24.0,0.,24.0,0.,24.0
1979-08-05 21:02:56.910 ,2,0,0.,24.0,0.,24.0,0.,24.0,0.,24.0
1979-08-05 21:03:20.910 ,3,1,0.,24.0,0.,24.0,0.,24.0,0.,24.0
1979-08-05 21:03:44.910 ,3,0,0.,24.0,0.,24.0,0.,24.0,0.,24.0
1979-08-05 21:04:08.910 ,4,1,0.,24.0,0.,24.0,0.,24.0,0.,24.0
1979-08-05 21:04:32.910 ,4,0,0.,24.0,0.,24.0,0.,24.0,0.,24.0
1979-08-05 21:04:56.910 ,5,1,0.,24.0,1.,24.0,1.,24.0,0.,24.0
1979-08-05 21:05:20.910 ,5,0,0.,24.0,0.,24.0,0.,24.0,0.,24.0
1979-08-05 21:05:44.910 ,6,1,0.,24.0,0.,24.0,1.,24.0,0.,24.0
1979-08-05 21:06:08.910 ,6,0,0.,24.0,0.,24.0,1.,24.0,0.,24.0
1979-08-05 21:06:32.910 ,7,0,7.,24.0,0.,24.0,1.,24.0,0.,24.0
1979-08-05 21:06:56.910 ,7,0,24.,24.0,0.,24.0,0.,24.0,0.,24.0
1979-08-05 21:07:20.910 ,5,1,19.,24.0,0.,24.0,1.,24.0,0.,24.0
1979-08-05 21:07:44.910 ,1,1,0.,24.0,0.,24.0,0.,24.0,0.,24.0
1979-08-05 21:08:08.910 ,2,1,,0,,0,,0,,0
1979-08-05 21:08:32.910 ,6,1,0.,24.0,0.,24.0,1.,24.0,0.,24.0
1979-08-05 21:08:56.910 ,5,1,13.,24.0,0.,24.0,0.,24.0,0.,24.0
1979-08-05 21:09:20.910 ,1,1,2.,24.0,0.,24.0,0.,24.0,0.,24.0
1979-08-05 21:09:44.910 ,2,1,0.,24.0,0.,24.0,0.,24.0,0.,24.0
1979-08-05 21:10:08.910 ,6,1,0.,24.0,0.,24.0,0.,24.0,0.,24.0
1979-08-05 21:10:32.910 ,5,1,23.,24.0,0.,24.0,0.,24.0,0.,24.0
1979-08-05 21:10:56.910 ,1,1,1.,24.0,0.,24.0,0.,24.0,0.,24.0
1979-08-05 21:11:20.910 ,2,1,0.,24.0,0.,24.0,0.,24.0,0.,24.0
1979-08-05 21:11:44.910 ,6,1,0.,24.0,0.,24.0,1.,24.0,0.,24.0
1979-08-05 21:12:08.910 ,5,1,19.,24.0,0.,24.0,0.,24.0,0.,24.0
1979-08-05 21:12:32.910 ,1,1,1.,24.0,0.,24.0,1.,24.0,0.,24.0
1979-08-05 21:12:57.510 ,2,1,0.,24.0,0.,24.0,0.,24.0,0.,24.0
1979-08-05 21:13:20.910 ,6,1,0.,24.0,0.,24.0,0.,24.0,0.,24.0
1979-08-05 21:13:44.910 ,5,1,10.,24.0,0.,24.0,2.,24.0,0.,24.0
1979-08-05 21:14:08.910 ,1,1,0.,24.0,0.,24.0,0.,24.0,0.,24.0
1979-08-05 21:14:32.910 ,2,1,0.,24.0,0.,24.0,1.,24.0,0.,24.0
1979-08-05 21:14:56.910 ,6,1,0.,24.0,0.,24.0,0.,24.0,0.,24.0
1979-08-05 21:15:20.910 ,5,1,15.,24.0,0.,24.0,0.,24.0,0.,24.0
1979-08-05 21:15:44.910 ,1,1,0.,24.0,1.,24.0,0.,24.0,0.,24.0
1979-08-05 21:16:08.910 ,2,1,0.,24.0,0.,24.0,0.,24.0,0.,24.0
1979-08-05 21:16:32.910 ,6,1,0.,24.0,0.,24.0,1.,24.0,0.,24.0
1979-08-05 21:16:56.910 ,5,1,23.,24.0,0.,24.0,1.,24.0,0.,24.0
1979-08-05 21:17:20.910 ,1,1,1.,24.0,0.,24.0,1.,24.0,0.,24.0
1979-08-05 21:17:44.910 ,0,0,0.,24.0,0.,24.0,0.,24.0,0.,24.0
1979-08-05 21:18:08.910 ,0,0,0.,24.0,0.,24.0,0.,24.0,0.,24.0
1979-08-05 21:18:32.910 ,5,1,16.,24.0,0.,24.0,0.,24.0,0.,24.0
1979-08-05 21:18:56.910 ,5,0,0.,24.0,0.,24.0,1.,24.0,0.,24.0
1979-08-05 21:19:20.910 ,4,1,0.,24.0,0.,24.0,0.,24.0,0.,24.0
1979-08-05 21:19:44.910 ,4,0,0.,24.0,0.,24.0,0.,24.0,0.,24.0
1979-08-05 21:20:08.910 ,3,1,0.,24.0,0.,24.0,0.,24.0,0.,24.0
1979-08-05 21:20:32.910 ,3,0,0.,24.0,0.,24.0,1.,24.0,0.,24.0
1979-08-05 21:20:56.910 ,2,1,0.,24.0,0.,24.0,0.,24.0,0.,24.0
1979-08-05 21:21:20.910 ,2,0,0.,24.0,0.,24.0,0.,24.0,0.,24.0
1979-08-05 21:21:44.910 ,1,1,0.,24.0,0.,24.0,0.,24.0,0.,24.0
1979-08-05 21:22:08.910 ,1,0,0.,24.0,1.,24.0,0.,24.0,0.,24.0
1979-08-05 21:22:32.910 ,0,1,0.,24.0,0.,24.0,1.,24.0,0.,24.0
1979-08-05 21:22:56.910 ,0,0,0.,24.0,0.,24.0,0.,24.0,0.,24.0
1979-08-05 21:23:20.910 ,0,1,0.,24.0,0.,24.0,0.,24.0,0.,24.0
1979-08-05 21:23:44.910 ,0,0,1.,24.0,0.,24.0,0.,24.0,0.,24.0
1979-08-05 21:24:08.910 ,1,1,0.,24.0,0.,24.0,1.,24.0,0.,24.0
1979-08-05 21:24:32.910 ,1,0,1.,24.0,0.,24.0,0.,24.0,0.,24.0
1979-08-05 21:24:56.910 ,2,1,1.,24.0,0.,24.0,0.,24.0,0.,24.0
1979-08-05 21:25:20.910 ,2,0,0.,24.0,0.,24.0,1.,24.0,0.,24.0
1979-08-05 21:25:44.910 ,3,1,0.,24.0,0.,24.0,0.,24.0,0.,24.0
1979-08-05 21:26:08.910 ,3,0,0.,24.0,0.,24.0,1.,24.0,0.,24.0
1979-08-05 21:26:32.910 ,4,1,0.,24.0,0.,24.0,1.,24.0,0.,24.0
1979-08-05 21:26:56.910 ,4,0,1.,24.0,1.,24.0,0.,24.0,0.,24.0
1979-08-05 21:27:20.910 ,5,1,0.,24.0,0.,24.0,0.,24.0,0.,24.0
1979-08-05 21:27:44.910 ,5,0,0.,24.0,0.,24.0,1.,24.0,0.,24.0
1979-08-05 21:28:08.910 ,6,1,0.,24.0,0.,24.0,1.,24.0,0.,24.0
1979-08-05 21:28:32.910 ,0,0,0.,24.0,0.,24.0,1.,24.0,0.,24.0
1979-08-05 21:28:56.910 ,7,1,8.,24.0,0.,24.0,1.,24.0,0.,24.0
1979-08-05 21:29:20.910 ,7,0,29.,24.0,0.,24.0,0.,24.0,0.,24.0
1979-08-05 21:29:44.910 ,7,1,35.,24.0,0.,24.0,0.,24.0,0.,24.0
1979-08-05 21:30:08.910 ,7,0,35.,24.0,0.,24.0,1.,24.0,0.,24.0
1979-08-05 21:30:32.910 ,6,1,24.,24.0,0.,24.0,1.,24.0,0.,24.0
1979-08-05 21:30:56.910 ,6,0,0.,24.0,0.,24.0,0.,24.0,0.,24.0
1979-08-05 21:31:20.910 ,5,1,0.,24.0,0.,24.0,0.,24.0,0.,24.0
1979-08-05 21:31:44.910 ,5,0,0.,24.0,0.,24.0,0.,24.0,0.,24.0
1979-08-05 21:32:08.910 ,4,1,0.,24.0,0.,24.0,0.,24.0,0.,24.0
1979-08-05 21:32:32.910 ,4,0,0.,24.0,0.,24.0,1.,24.0,0.,24.0
1979-08-05 21:32:56.910 ,3,1,0.,24.0,0.,24.0,1.,24.0,0.,24.0
1979-08-05 21:33:20.910 ,3,0,0.,24.0,0.,24.0,0.,24.0,0.,24.0
1979-08-05 21:33:44.910 ,2,1,0.,24.0,0.,24.0,0.,24.0,0.,24.0
1979-08-05 21:34:08.910 ,2,0,0.,24.0,0.,24.0,0.,24.0,0.,24.0
1979-08-05 21:34:32.910 ,1,1,0.,24.0,0.,24.0,1.,24.0,0.,24.0
1979-08-05 21:34:56.910 ,1,0,0.,24.0,0.,24.0,0.,24.0,0.,24.0
1979-08-05 21:35:20.910 ,0,0,0.,24.0,0.,24.0,0.,24.0,0.,24.0
1979-08-05 21:35:44.910 ,0,0,0.,24.0,0.,24.0,1.,24.0,0.,24.0
1979-08-05 21:36:08.910 ,0,1,0.,24.0,0.,24.0,0.,24.0,0.,24.0
1979-08-05 21:36:32.910 ,0,0,0.,24.0,0.,24.0,0.,24.0,0.,24.0
1979-08-05 21:36:56.910 ,1,1,0.,24.0,0.,24.0,1.,24.0,0.,24.0
1979-08-05 21:37:20.910 ,0,0,0.,24.0,0.,24.0,1.,24.0,0.,24.0
1979-08-05 21:37:44.910 ,2,1,0.,24.0,0.,24.0,0.,24.0,0.,24.0
1979-08-05 21:38:08.910 ,2,0,0.,24.0,0.,24.0,0.,24.0,0.,24.0
1979-08-05 21:38:32.910 ,3,1,0.,24.0,0.,24.0,0.,24.0,0.,24.0
1979-08-05 21:38:56.910 ,3,0,0.,24.0,0.,24.0,0.,24.0,0.,24.0
1979-08-05 21:39:20.910 ,4,1,0.,24.0,0.,24.0,0.,24.0,0.,24.0
1979-08-05 21:39:44.910 ,4,0,0.,24.0,0.,24.0,0.,24.0,0.,24.0
1979-08-05 21:40:08.910 ,5,1,0.,24.0,0.,24.0,0.,24.0,0.,24.0
1979-08-05 21:40:32.910 ,5,0,0.,24.0,0.,24.0,0.,24.0,0.,24.0
1979-08-05 21:40:56.910 ,6,1,0.,24.0,0.,24.0,0.,24.0,0.,24.0
1979-08-05 21:41:20.910 ,6,0,0.,24.0,1.,24.0,1.,24.0,0.,24.0
1979-08-05 21:41:44.910 ,7,1,8.,24.0,0.,24.0,1.,24.0,0.,24.0
1979-08-05 21:42:08.910 ,0,0,30.,24.0,0.,24.0,0.,24.0,0.,24.0
1979-08-05 21:42:32.910 ,7,1,28.,24.0,0.,24.0,0.,24.0,0.,24.0
1979-08-05 21:42:56.910 ,7,0,32.,24.0,0.,24.0,1.,24.0,0.,24.0
1979-08-05 21:43:20.910 ,6,1,13.,24.0,0.,24.0,0.,24.0,0.,24.0
1979-08-05 21:43:44.910 ,6,0,0.,24.0,0.,24.0,1.,24.0,0.,24.0
1979-08-05 21:44:08.910 ,5,1,1.,24.0,0.,24.0,0.,24.0,0.,24.0
1979-08-05 21:44:32.910 ,5,0,0.,24.0,0.,24.0,0.,24.0,0.,24.0
1979-08-05 21:44:56.910 ,4,1,0.,24.0,0.,24.0,0.,24.0,0.,24.0
1979-08-05 21:45:20.910 ,4,0,0.,24.0,0.,24.0,1.,24.0,0.,24.0
1979-08-05 21:45:44.910 ,3,1,0.,24.0,0.,24.0,1.,24.0,0.,24.0
1979-08-05 21:46:08.910 ,3,0,0.,24.0,0.,24.0,0.,24.0,0.,24.0
1979-08-05 21:46:32.910 ,2,1,0.,24.0,0.,24.0,1.,24.0,0.,24.0
1979-08-05 21:46:56.910 ,2,0,0.,24.0,0.,24.0,0.,24.0,0.,24.0
1979-08-05 21:47:20.910 ,1,1,0.,24.0,0.,24.0,0.,24.0,0.,24.0
1979-08-05 21:47:44.910 ,1,0,0.,24.0,0.,24.0,1.,24.0,0.,24.0
1979-08-05 21:48:08.910 ,0,1,0.,24.0,0.,24.0,0.,24.0,0.,24.0
1979-08-05 21:48:32.910 ,0,1,0.,24.0,0.,24.0,0.,24.0,0.,24.0
1979-08-05 21:48:56.910 ,0,1,0.,24.0,0.,24.0,0.,24.0,0.,24.0
1979-08-05 21:49:20.910 ,0,0,0.,24.0,0.,24.0,0.,24.0,0.,24.0
1979-08-05 21:49:44.910 ,1,1,0.,24.0,0.,24.0,0.,24.0,0.,24.0
1979-08-05 21:50:08.910 ,1,0,0.,24.0,0.,24.0,0.,24.0,0.,24.0
1979-08-05 21:50:32.910 ,2,1,0.,24.0,0.,24.0,1.,24.0,0.,24.0
1979-08-05 21:50:56.910 ,2,0,0.,24.0,0.,24.0,0.,24.0,0.,24.0
1979-08-05 21:51:20.910 ,3,1,0.,24.0,0.,24.0,0.,24.0,0.,24.0
1979-08-05 21:51:44.910 ,3,0,0.,24.0,0.,24.0,0.,24.0,0.,24.0
1979-08-05 21:52:08.910 ,4,1,0.,24.0,0.,24.0,0.,24.0,0.,24.0
1979-08-05 21:52:32.910 ,4,0,0.,24.0,0.,24.0,0.,24.0,0.,24.0
1979-08-05 21:52:56.910 ,5,1,0.,24.0,0.,24.0,0.,24.0,0.,24.0
1979-08-05 21:53:20.910 ,5,0,0.,24.0,0.,24.0,2.,24.0,0.,24.0
1979-08-05 21:53:44.910 ,6,1,0.,24.0,0.,24.0,1.,24.0,0.,24.0
1979-08-05 21:54:08.910 ,6,0,0.,24.0,0.,24.0,2.,24.0,0.,24.0
1979-08-05 21:54:32.910 ,7,0,8.,24.0,0.,24.0,1.,24.0,1.,24.0
1979-08-05 21:54:56.910 ,7,0,38.,24.0,0.,24.0,0.,24.0,0.,24.0
1979-08-05 21:55:20.910 ,0,0,18.,24.0,0.,24.0,0.,24.0,0.,24.0
1979-08-05 21:55:44.910 ,0,0,0.,24.0,0.,24.0,0.,24.0,0.,24.0
1979-08-05 21:56:08.910 ,2,1,0.,24.0,0.,24.0,1.,24.0,0.,24.0
1979-08-05 21:56:32.910 ,6,1,0.,24.0,0.,24.0,0.,24.0,0.,24.0
1979-08-05 21:56:56.910 ,5,1,20.,24.0,0.,24.0,0.,24.0,0.,24.0
1979-08-05 21:57:20.910 ,1,1,0.,24.0,0.,24.0,0.,24.0,0.,24.0
1979-08-05 21:57:44.910 ,2,1,0.,24.0,0.,24.0,1.,24.0,0.,24.0
1979-08-05 21:58:08.910 ,6,1,0.,24.0,1.,24.0,2.,24.0,0.,24.0
1979-08-05 21:58:32.910 ,5,1,20.,24.0,0.,24.0,0.,24.0,0.,24.0
1979-08-05 21:58:56.910 ,1,1,0.,24.0,0.,24.0,0.,24.0,0.,24.0
1979-08-05 21:59:20.910 ,2,1,0.,24.0,1.,24.0,0.,24.0,0.,24.0
1979-08-05 21:59:44.910 ,6,1,0.,24.0,0.,24.0,2.,24.0,0.,24.0
1979-08-05 22:00:08.910 ,5,1,20.,24.0,0.,24.0,0.,24.0,0.,24.0
1979-08-05 22:00:32.910 ,1,1,0.,24.0,0.,24.0,0.,24.0,0.,24.0
1979-08-05 22:00:56.910 ,2,1,0.,24.0,0.,24.0,2.,24.0,0.,24.0
1979-08-05 22:01:20.910 ,6,1,0.,24.0,0.,24.0,0.,24.0,0.,24.0
1979-08-05 22:01:44.910 ,5,1,17.,24.0,0.,24.0,0.,24.0,0.,24.0
1979-08-05 22:02:08.910 ,1,1,0.,24.0,0.,24.0,0.,24.0,0.,24.0
1979-08-05 22:02:32.910 ,2,1,0.,24.0,0.,24.0,1.,24.0,0.,24.0
1979-08-05 22:02:56.910 ,6,1,0.,24.0,0.,24.0,0.,24.0,0.,24.0
1979-08-05 22:03:20.910 ,5,1,13.,24.0,0.,24.0,0.,24.0,0.,24.0
1979-08-05 22:03:44.910 ,1,1,1.,24.0,0.,24.0,0.,24.0,0.,24.0
1979-08-05 22:04:08.910 ,2,1,0.,24.0,0.,24.0,1.,24.0,0.,24.0
1979-08-05 22:04:32.910 ,6,1,0.,24.0,1.,24.0,0.,24.0,0.,24.0
1979-08-05 22:04:56.910 ,5,1,19.,24.0,0.,24.0,0.,24.0,0.,24.0
1979-08-05 22:05:20.910 ,1,1,0.,24.0,0.,24.0,1.,24.0,0.,24.0
1979-08-05 22:05:44.910 ,0,0,0.,24.0,0.,24.0,0.,24.0,0.,24.0
1979-08-05 22:06:08.910 ,0,0,0.,24.0,0.,24.0,0.,24.0,0.,24.0
1979-08-05 22:06:32.910 ,5,1,16.,24.0,0.,24.0,2.,24.0,0.,24.0
1979-08-05 22:06:56.910 ,5,0,0.,24.0,0.,24.0,0.,24.0,0.,24.0
1979-08-05 22:07:20.910 ,4,1,2.,24.0,0.,24.0,0.,24.0,0.,24.0
1979-08-05 22:07:44.910 ,4,0,0.,24.0,0.,24.0,1.,24.0,0.,24.0
1979-08-05 22:08:08.910 ,3,1,0.,24.0,0.,24.0,1.,24.0,0.,24.0
1979-08-05 22:08:32.910 ,3,0,0.,24.0,0.,24.0,0.,24.0,0.,24.0
1979-08-05 22:08:56.910 ,2,1,0.,24.0,0.,24.0,0.,24.0,0.,24.0
1979-08-05 22:09:20.910 ,2,0,0.,24.0,0.,24.0,2.,24.0,0.,24.0
1979-08-05 22:09:44.910 ,1,1,0.,24.0,0.,24.0,0.,24.0,0.,24.0
1979-08-05 22:10:08.910 ,1,0,0.,24.0,1.,24.0,1.,24.0,0.,24.0
1979-08-05 22:10:32.910 ,0,1,0.,24.0,0.,24.0,0.,24.0,0.,24.0
1979-08-05 22:10:56.910 ,0,0,2.,24.0,0.,24.0,0.,24.0,0.,24.0
1979-08-05 22:11:20.910 ,0,1,0.,24.0,0.,24.0,0.,24.0,0.,24.0
1979-08-05 22:11:44.910 ,0,0,,0,,0,,0,,0
1979-08-05 22:12:08.910 ,1,1,0.,24.0,0.,24.0,1.,24.0,0.,24.0
1979-08-05 22:12:32.910 ,1,0,0.,24.0,0.,24.0,1.,24.0,0.,24.0
1979-08-05 22:12:56.910 ,2,1,1.,24.0,0.,24.0,0.,24.0,0.,24.0
1979-08-05 22:13:20.910 ,2,0,0.,24.0,0.,24.0,0.,24.0,0.,24.0
1979-08-05 22:13:44.910 ,3,1,0.,24.0,0.,24.0,0.,24.0,0.,24.0
1979-08-05 22:14:08.910 ,3,0,0.,24.0,0.,24.0,1.,24.0,0.,24.0
1979-08-05 22:14:32.910 ,4,1,0.,24.0,0.,24.0,0.,24.0,0.,24.0
1979-08-05 22:14:56.910 ,4,0,0.,24.0,0.,24.0,0.,24.0,0.,24.0
1979-08-05 22:15:20.910 ,5,1,0.,24.0,0.,24.0,0.,24.0,0.,24.0
1979-08-05 22:15:44.910 ,5,0,0.,24.0,0.,24.0,1.,24.0,0.,24.0
1979-08-05 22:16:08.910 ,6,1,0.,24.0,0.,24.0,0.,24.0,0.,24.0
1979-08-05 22:16:32.910 ,6,0,,0,,0,,0,,0
1979-08-05 22:16:56.910 ,7,1,3.,24.0,0.,24.0,0.,24.0,0.,24.0
1979-08-05 22:17:20.910 ,7,0,23.,24.0,0.,24.0,0.,24.0,0.,24.0
1979-08-05 22:17:44.910 ,7,1,25.,24.0,0.,24.0,0.,24.0,0.,24.0
1979-08-05 22:18:08.910 ,7,0,28.,24.0,0.,24.0,1.,24.0,0.,24.0
1979-08-05 22:18:32.910 ,6,1,22.,24.0,0.,24.0,0.,24.0,0.,24.0
1979-08-05 22:18:56.910 ,6,0,0.,24.0,0.,24.0,0.,24.0,0.,24.0
1979-08-05 22:19:20.910 ,5,1,0.,24.0,1.,24.0,1.,24.0,0.,24.0
1979-08-05 22:19:44.910 ,5,0,0.,24.0,1.,24.0,0.,24.0,0.,24.0
1979-08-05 22:20:08.910 ,4,1,0.,24.0,0.,24.0,0.,24.0,0.,24.0
1979-08-05 22:20:32.910 ,4,0,0.,24.0,0.,24.0,1.,24.0,0.,24.0
1979-08-05 22:20:56.910 ,3,1,0.,24.0,0.,24.0,1.,24.0,0.,24.0
1979-08-05 22:21:20.910 ,3,0,0.,24.0,0.,24.0,0.,24.0,0.,24.0
1979-08-05 22:21:44.910 ,2,1,0.,24.0,0.,24.0,0.,24.0,0.,24.0
1979-08-05 22:22:08.910 ,2,0,0.,24.0,0.,24.0,0.,24.0,0.,24.0
1979-08-05 22:22:32.910 ,1,1,0.,24.0,0.,24.0,1.,24.0,0.,24.0
1979-08-05 22:22:56.910 ,1,0,0.,24.0,0.,24.0,0.,24.0,0.,24.0
1979-08-05 22:23:20.910 ,0,1,0.,24.0,0.,24.0,0.,24.0,0.,24.0
1979-08-05 22:23:44.910 ,0,0,0.,24.0,0.,24.0,2.,24.0,0.,24.0
1979-08-05 22:24:08.910 ,0,1,0.,24.0,0.,24.0,1.,24.0,0.,24.0
1979-08-05 22:24:32.910 ,0,0,0.,24.0,0.,24.0,0.,24.0,0.,24.0
1979-08-05 22:24:56.910 ,1,1,0.,24.0,0.,24.0,0.,24.0,0.,24.0
1979-08-05 22:25:20.910 ,1,0,0.,24.0,0.,24.0,0.,24.0,0.,24.0
1979-08-05 22:25:44.910 ,2,1,0.,24.0,0.,24.0,2.,24.0,0.,24.0
1979-08-05 22:26:08.910 ,2,0,0.,24.0,0.,24.0,0.,24.0,0.,24.0
1979-08-05 22:26:32.910 ,3,1,0.,24.0,0.,24.0,1.,24.0,0.,24.0
1979-08-05 22:26:56.910 ,3,0,0.,24.0,1.,24.0,0.,24.0,0.,24.0
1979-08-05 22:27:20.910 ,4,1,0.,24.0,0.,24.0,0.,24.0,0.,24.0
1979-08-05 22:27:44.910 ,4,0,0.,24.0,0.,24.0,0.,24.0,0.,24.0
1979-08-05 22:28:08.910 ,5,1,0.,24.0,0.,24.0,0.,24.0,0.,24.0
1979-08-05 22:28:32.910 ,5,0,0.,24.0,0.,24.0,2.,24.0,0.,24.0
1979-08-05 22:28:56.910 ,6,1,1.,24.0,0.,24.0,1.,24.0,0.,24.0
1979-08-05 22:29:20.910 ,6,0,0.,24.0,0.,24.0,0.,24.0,0.,24.0
1979-08-05 22:29:44.910 ,7,1,5.,24.0,0.,24.0,3.,24.0,0.,24.0
1979-08-05 22:30:08.910 ,7,0,30.,24.0,0.,24.0,0.,24.0,0.,24.0
1979-08-05 22:30:32.910 ,7,1,34.,24.0,0.,24.0,0.,24.0,0.,24.0
1979-08-05 22:30:56.910 ,7,0,37.,24.0,0.,24.0,1.,24.0,0.,24.0
1979-08-05 22:31:20.910 ,6,1,26.,24.0,0.,24.0,0.,24.0,0.,24.0
1979-08-05 22:31:44.910 ,6,0,0.,24.0,0.,24.0,1.,24.0,0.,24.0
1979-08-05 22:32:08.910 ,5,1,0.,24.0,0.,24.0,2.,24.0,0.,24.0
1979-08-05 22:32:32.910 ,5,0,0.,24.0,0.,24.0,1.,24.0,0.,24.0
1979-08-05 22:32:56.910 ,4,1,0.,24.0,0.,24.0,0.,24.0,0.,24.0
1979-08-05 22:33:20.910 ,4,0,0.,24.0,0.,24.0,3.,24.0,0.,24.0
1979-08-05 22:33:44.910 ,3,1,0.,24.0,1.,24.0,0.,24.0,0.,24.0
1979-08-05 22:34:08.910 ,3,0,0.,24.0,0.,24.0,0.,24.0,0.,24.0
1979-08-05 22:34:32.910 ,2,1,0.,24.0,0.,24.0,0.,24.0,0.,24.0
1979-08-05 22:34:56.910 ,2,0,0.,24.0,0.,24.0,0.,24.0,0.,24.0
1979-08-05 22:35:20.910 ,1,1,0.,24.0,0.,24.0,2.,24.0,0.,24.0
1979-08-05 22:35:44.910 ,1,0,0.,24.0,0.,24.0,0.,24.0,0.,24.0
1979-08-05 22:36:08.910 ,0,1,0.,24.0,0.,24.0,1.,24.0,0.,24.0
1979-08-05 22:36:32.910 ,0,0,0.,24.0,0.,24.0,0.,24.0,0.,24.0
1979-08-05 22:36:56.910 ,0,1,0.,24.0,0.,24.0,0.,24.0,0.,24.0
1979-08-05 22:37:20.910 ,0,0,0.,24.0,0.,24.0,0.,24.0,0.,24.0
1979-08-05 22:37:44.910 ,1,1,0.,24.0,0.,24.0,1.,24.0,0.,24.0
1979-08-05 22:38:08.910 ,1,0,1.,24.0,1.,24.0,0.,24.0,0.,24.0
1979-08-05 22:38:32.910 ,2,1,0.,24.0,0.,24.0,0.,24.0,0.,24.0
1979-08-05 22:38:56.910 ,2,0,0.,24.0,1.,24.0,0.,24.0,0.,24.0
1979-08-05 22:39:20.910 ,3,1,1.,24.0,0.,24.0,1.,24.0,0.,24.0
1979-08-05 22:39:44.910 ,3,0,0.,24.0,0.,24.0,1.,24.0,0.,24.0
1979-08-05 22:40:08.910 ,4,1,0.,24.0,0.,24.0,0.,24.0,0.,24.0
1979-08-05 22:40:32.910 ,4,0,0.,24.0,0.,24.0,1.,24.0,0.,24.0
1979-08-05 22:40:56.910 ,5,1,0.,24.0,0.,24.0,1.,24.0,0.,24.0
1979-08-05 22:41:20.910 ,5,0,0.,24.0,0.,24.0,1.,24.0,0.,24.0
1979-08-05 22:41:44.910 ,6,1,0.,24.0,0.,24.0,0.,24.0,0.,24.0
1979-08-05 22:42:08.910 ,6,0,1.,24.0,0.,24.0,0.,24.0,0.,24.0
1979-08-05 22:42:32.910 ,7,0,9.,24.0,0.,24.0,1.,24.0,0.,24.0
1979-08-05 22:42:56.910 ,7,0,36.,24.0,0.,24.0,0.,24.0,0.,24.0
1979-08-05 22:43:20.910 ,5,1,21.,24.0,0.,24.0,0.,24.0,0.,24.0
1979-08-05 22:43:44.910 ,1,1,0.,24.0,0.,24.0,0.,24.0,0.,24.0
1979-08-05 22:44:08.910 ,2,1,0.,24.0,0.,24.0,0.,24.0,0.,24.0
1979-08-05 22:44:32.910 ,6,1,0.,24.0,0.,24.0,0.,24.0,0.,24.0
1979-08-05 22:44:56.910 ,5,1,12.,24.0,0.,24.0,0.,24.0,0.,24.0
1979-08-05 22:45:20.910 ,1,1,0.,24.0,0.,24.0,0.,24.0,0.,24.0
1979-08-05 22:45:44.910 ,2,1,0.,24.0,0.,24.0,0.,24.0,0.,24.0
1979-08-05 22:46:08.910 ,0,0,0.,24.0,0.,24.0,0.,24.0,0.,24.0
1979-08-05 22:46:30.510 ,0,0,,0,,0,,0,,0
1979-08-05 22:46:32.910 ,5,1,12.,24.0,0.,24.0,1.,24.0,0.,24.0
1979-08-05 22:46:56.910 ,1,1,0.,24.0,0.,24.0,0.,24.0,0.,24.0
1979-08-05 22:47:20.910 ,2,1,0.,24.0,0.,24.0,0.,24.0,0.,24.0
1979-08-05 22:47:44.910 ,6,1,0.,24.0,0.,24.0,2.,24.0,0.,24.0
1979-08-05 22:48:08.910 ,5,1,8.,24.0,1.,24.0,0.,24.0,0.,24.0
1979-08-05 22:48:32.910 ,1,1,0.,24.0,0.,24.0,2.,24.0,0.,24.0
1979-08-05 22:48:56.910 ,2,1,0.,24.0,0.,24.0,0.,24.0,0.,24.0
1979-08-05 22:49:20.910 ,6,1,0.,24.0,0.,24.0,1.,24.0,0.,24.0
1979-08-05 22:49:44.910 ,5,1,16.,24.0,0.,24.0,1.,24.0,0.,24.0
1979-08-05 22:50:08.910 ,1,1,0.,24.0,0.,24.0,0.,24.0,0.,24.0
1979-08-05 22:50:32.910 ,2,1,1.,24.0,0.,24.0,0.,24.0,0.,24.0
1979-08-05 22:50:56.910 ,6,1,0.,24.0,1.,24.0,2.,24.0,0.,24.0
1979-08-05 22:51:20.910 ,5,1,13.,24.0,0.,24.0,0.,24.0,0.,24.0
1979-08-05 22:51:44.910 ,1,1,0.,24.0,0.,24.0,0.,24.0,0.,24.0
1979-08-05 22:52:08.910 ,2,1,0.,24.0,0.,24.0,1.,24.0,0.,24.0
1979-08-05 22:52:32.910 ,6,1,0.,24.0,0.,24.0,1.,24.0,0.,24.0
1979-08-05 22:52:56.910 ,5,1,19.,24.0,0.,24.0,0.,24.0,0.,24.0
1979-08-05 22:53:20.910 ,1,1,0.,24.0,0.,24.0,1.,24.0,0.,24.0
1979-08-05 22:53:44.910 ,0,0,2.,24.0,0.,24.0,1.,24.0,0.,24.0
1979-08-05 22:54:08.910 ,0,0,0.,24.0,0.,24.0,2.,24.0,0.,24.0
1979-08-05 22:54:32.910 ,5,1,23.,24.0,0.,24.0,1.,24.0,0.,24.0
1979-08-05 22:54:56.910 ,5,0,0.,24.0,0.,24.0,0.,24.0,0.,24.0
1979-08-05 22:55:20.910 ,4,1,0.,24.0,0.,24.0,0.,24.0,0.,24.0
1979-08-05 22:55:44.910 ,4,0,0.,24.0,0.,24.0,1.,24.0,0.,24.0
1979-08-05 22:56:08.910 ,3,1,0.,24.0,0.,24.0,0.,24.0,0.,24.0
1979-08-05 22:56:32.910 ,3,0,0.,24.0,0.,24.0,0.,24.0,0.,24.0
1979-08-05 22:56:56.910 ,2,1,0.,24.0,0.,24.0,0.,24.0,0.,24.0
1979-08-05 22:57:20.910 ,2,0,0.,24.0,0.,24.0,0.,24.0,0.,24.0
1979-08-05 22:57:44.910 ,1,1,0.,24.0,1.,24.0,2.,24.0,0.,24.0
1979-08-05 22:58:08.910 ,1,0,1.,24.0,0.,24.0,2.,24.0,0.,24.0
1979-08-05 22:58:32.910 ,0,1,0.,24.0,1.,24.0,0.,24.0,0.,24.0
1979-08-05 22:58:56.910 ,0,0,1.,24.0,2.,24.0,1.,24.0,0.,24.0
1979-08-05 22:59:20.910 ,0,1,2.,24.0,0.,24.0,0.,24.0,0.,24.0
1979-08-05 22:59:44.910 ,0,0,0.,24.0,1.,24.0,1.,24.0,0.,24.0
1979-08-05 23:00:08.910 ,1,1,1.,24.0,1.,24.0,1.,24.0,0.,24.0
1979-08-05 23:00:32.910 ,1,0,1.,24.0,0.,24.0,3.,24.0,0.,24.0
1979-08-05 23:00:56.910 ,2,1,1.,24.0,0.,24.0,0.,24.0,0.,24.0
1979-08-05 23:01:20.910 ,2,0,0.,24.0,0.,24.0,1.,24.0,0.,24.0
1979-08-05 23:01:44.910 ,3,1,0.,24.0,0.,24.0,2.,24.0,0.,24.0
1979-08-05 23:02:08.910 ,3,0,0.,24.0,1.,24.0,3.,24.0,0.,24.0
1979-08-05 23:02:32.910 ,4,1,0.,24.0,1.,24.0,3.,24.0,0.,24.0
1979-08-05 23:02:56.910 ,4,0,0.,24.0,0.,24.0,2.,24.0,0.,24.0
1979-08-05 23:03:20.910 ,5,1,0.,24.0,0.,24.0,0.,24.0,0.,24.0
1979-08-05 23:03:44.910 ,5,0,0.,24.0,0.,24.0,6.,24.0,0.,24.0
1979-08-05 23:04:08.910 ,6,1,0.,24.0,1.,24.0,2.,24.0,0.,24.0
1979-08-05 23:04:32.910 ,6,0,2.,24.0,0.,24.0,1.,24.0,0.,24.0
1979-08-05 23:04:57.510 ,7,1,7.,24.0,0.,24.0,2.,24.0,0.,24.0
1979-08-05 23:05:20.910 ,7,0,28.,24.0,0.,24.0,1.,24.0,0.,24.0
1979-08-05 23:05:44.910 ,7,1,28.,24.0,0.,24.0,3.,24.0,0.,24.0
1979-08-05 23:06:08.910 ,7,0,33.,24.0,0.,24.0,1.,24.0,0.,24.0
1979-08-05 23:06:32.910 ,6,1,26.,24.0,0.,24.0,1.,24.0,0.,24.0
1979-08-05 23:06:56.910 ,6,0,0.,24.0,1.,24.0,7.,24.0,0.,24.0
1979-08-05 23:07:20.910 ,5,1,0.,24.0,0.,24.0,6.,24.0,0.,24.0
1979-08-05 23:07:44.910 ,5,0,0.,24.0,0.,24.0,3.,24.0,0.,24.0
1979-08-05 23:08:08.910 ,4,1,0.,24.0,0.,24.0,3.,24.0,0.,24.0
1979-08-05 23:08:32.910 ,4,0,1.,24.0,0.,24.0,8.,24.0,0.,24.0
1979-08-05 23:08:56.910 ,3,1,0.,24.0,0.,24.0,7.,24.0,0.,24.0
1979-08-05 23:09:20.910 ,3,0,0.,24.0,0.,24.0,3.,24.0,0.,24.0
1979-08-05 23:09:44.910 ,2,1,0.,24.0,0.,24.0,1.,24.0,0.,24.0
1979-08-05 23:10:08.910 ,2,0,0.,24.0,0.,24.0,2.,24.0,0.,24.0
1979-08-05 23:10:32.910 ,1,1,0.,24.0,0.,24.0,1.,24.0,0.,24.0
1979-08-05 23:10:56.910 ,1,0,0.,24.0,0.,24.0,2.,24.0,0.,24.0
1979-08-05 23:11:20.910 ,0,1,0.,24.0,0.,24.0,3.,24.0,0.,24.0
1979-08-05 23:11:44.910 ,0,0,0.,24.0,1.,24.0,5.,24.0,0.,24.0
1979-08-05 23:12:08.910 ,0,1,1.,24.0,0.,24.0,5.,24.0,0.,24.0
1979-08-05 23:12:32.910 ,0,0,0.,24.0,0.,24.0,4.,24.0,0.,24.0
1979-08-05 23:12:56.910 ,1,1,1.,24.0,0.,24.0,1.,24.0,0.,24.0
1979-08-05 23:13:20.910 ,1,0,0.,24.0,0.,24.0,0.,24.0,0.,24.0
1979-08-05 23:13:44.910 ,2,1,0.,24.0,0.,24.0,3.,24.0,0.,24.0
1979-08-05 23:14:08.910 ,2,0,0.,24.0,0.,24.0,5.,24.0,0.,24.0
1979-08-05 23:14:32.910 ,3,1,0.,24.0,0.,24.0,2.,24.0,0.,24.0
1979-08-05 23:14:56.910 ,3,0,0.,24.0,1.,24.0,2.,24.0,0.,24.0
1979-08-05 23:15:20.910 ,4,1,0.,24.0,0.,24.0,5.,24.0,0.,24.0
1979-08-05 23:15:44.910 ,4,0,0.,24.0,0.,24.0,7.,24.0,0.,24.0
1979-08-05 23:16:08.910 ,5,1,0.,24.0,0.,24.0,2.,24.0,0.,24.0
1979-08-05 23:16:32.910 ,5,0,1.,24.0,0.,24.0,2.,24.0,0.,24.0
1979-08-05 23:16:56.910 ,6,1,0.,24.0,0.,24.0,3.,24.0,0.,24.0
1979-08-05 23:17:44.910 ,7,1,6.,24.0,0.,24.0,2.,24.0,0.,24.0
1979-08-05 23:18:08.910 ,7,0,22.,24.0,0.,24.0,5.,24.0,0.,24.0
1979-08-05 23:18:32.910 ,7,1,34.,24.0,0.,24.0,2.,24.0,0.,24.0
1979-08-05 23:18:56.910 ,7,0,33.,24.0,0.,24.0,7.,24.0,0.,24.0
1979-08-05 23:19:20.910 ,6,1,20.,24.0,0.,24.0,4.,24.0,0.,24.0
1979-08-05 23:19:44.910 ,6,0,0.,24.0,0.,24.0,6.,24.0,0.,24.0
1979-08-05 23:20:08.910 ,5,1,0.,24.0,0.,24.0,3.,24.0,0.,24.0
1979-08-05 23:20:32.910 ,5,0,0.,24.0,0.,24.0,1.,24.0,0.,24.0
1979-08-05 23:20:56.910 ,4,1,0.,24.0,1.,24.0,3.,24.0,0.,24.0
1979-08-05 23:21:20.910 ,4,0,0.,24.0,0.,24.0,4.,24.0,0.,24.0
1979-08-05 23:21:44.910 ,3,1,0.,24.0,0.,24.0,4.,24.0,0.,24.0
1979-08-05 23:22:08.910 ,3,0,0.,24.0,0.,24.0,1.,24.0,0.,24.0
1979-08-05 23:22:32.910 ,2,1,0.,24.0,0.,24.0,0.,24.0,0.,24.0
1979-08-05 23:22:56.910 ,2,0,0.,24.0,0.,24.0,1.,24.0,0.,24.0
1979-08-05 23:23:20.910 ,1,1,1.,24.0,0.,24.0,3.,24.0,0.,24.0
1979-08-05 23:23:44.910 ,1,0,0.,24.0,0.,24.0,5.,24.0,0.,24.0
1979-08-05 23:24:08.910 ,0,1,0.,24.0,0.,24.0,0.,24.0,0.,24.0
1979-08-05 23:24:32.910 ,0,0,0.,24.0,1.,24.0,0.,24.0,0.,24.0
1979-08-05 23:24:56.910 ,0,1,1.,24.0,0.,24.0,1.,24.0,0.,24.0
1979-08-05 23:25:20.910 ,0,0,1.,24.0,1.,24.0,0.,24.0,0.,24.0
1979-08-05 23:25:44.910 ,1,1,1.,24.0,0.,24.0,1.,24.0,0.,24.0
1979-08-05 23:26:08.910 ,1,0,0.,24.0,0.,24.0,0.,24.0,0.,24.0
1979-08-05 23:26:32.910 ,2,1,0.,24.0,0.,24.0,2.,24.0,0.,24.0
1979-08-05 23:26:56.910 ,2,0,0.,24.0,0.,24.0,0.,24.0,0.,24.0
1979-08-05 23:27:20.910 ,3,1,0.,24.0,0.,24.0,1.,24.0,0.,24.0
1979-08-05 23:27:44.910 ,3,0,0.,24.0,0.,24.0,1.,24.0,0.,24.0
1979-08-05 23:28:08.910 ,4,1,0.,24.0,0.,24.0,0.,24.0,0.,24.0
1979-08-05 23:28:32.910 ,4,0,0.,24.0,0.,24.0,3.,24.0,0.,24.0
1979-08-05 23:28:56.910 ,5,1,0.,24.0,0.,24.0,2.,24.0,0.,24.0
1979-08-05 23:29:20.910 ,5,0,0.,24.0,0.,24.0,1.,24.0,0.,24.0
1979-08-05 23:29:44.910 ,6,1,0.,24.0,0.,24.0,1.,24.0,0.,24.0
1979-08-05 23:30:08.910 ,6,0,1.,24.0,0.,24.0,1.,24.0,0.,24.0
1979-08-05 23:30:32.910 ,7,0,8.,24.0,0.,24.0,2.,24.0,0.,24.0
1979-08-05 23:30:56.910 ,7,0,32.,24.0,0.,24.0,0.,24.0,0.,24.0
1979-08-05 23:31:20.910 ,5,1,9.,24.0,0.,24.0,0.,24.0,0.,24.0
1979-08-05 23:31:44.910 ,1,1,0.,24.0,0.,24.0,0.,24.0,0.,24.0
1979-08-05 23:32:08.910 ,2,1,0.,24.0,0.,24.0,0.,24.0,0.,24.0
1979-08-05 23:32:32.910 ,6,1,0.,24.0,0.,24.0,0.,24.0,0.,24.0
1979-08-05 23:32:56.910 ,5,1,17.,24.0,0.,24.0,0.,24.0,0.,24.0
1979-08-05 23:33:20.910 ,1,1,0.,24.0,0.,24.0,1.,24.0,0.,24.0
1979-08-05 23:33:44.910 ,2,1,0.,24.0,0.,24.0,1.,24.0,0.,24.0
1979-08-05 23:34:08.910 ,6,1,0.,24.0,0.,24.0,3.,24.0,0.,24.0
1979-08-05 23:34:32.910 ,5,1,19.,24.0,0.,24.0,0.,24.0,0.,24.0